Track STARLINK-31378 now! 10-day predictions STARLINK-31378 is classified as:
1 58932U 24027B 24325.46667588 .00000611 00000-0 32767-4 0 9995 2 58932 53.1593 352.2766 0001364 94.9415 265.1741 15.30193680 44721